Overview Statistics Trail Chart Weather Telemetry Raw packets
 

This is the latest recevied weather packets stored in our database for station/object K7FLA. If no packets are shown the sender has not sent any weather packets the latest 10 day(s).

<< 104 105 106 107 108 109 110 >>
Time Temp. Humidity Pressure Rain* Wind** Luminosity Snow
1787879277 35° C 29% 1093.4 hPa 0 mm - 73 W/m² -
1787878974 35° C 28% 1093.4 hPa 0 mm - 92 W/m² -
1787878672 35° C 28% 1093 hPa 0 mm - 128 W/m² -
1787878367 35.56° C 26% 1093.1 hPa 0 mm - 155 W/m² -
1787878064 35.56° C 26% 1093.4 hPa 0 mm - 162 W/m² -
1787877759 35.56° C 25% 1093.3 hPa 0 mm - 177 W/m² -
1787877454 35.56° C 25% 1093.3 hPa 0 mm - 159 W/m² -
1787877151 35.56° C 26% 1093.4 hPa 0 mm - 185 W/m² -
1787876849 35.56° C 27% 1093.4 hPa 0 mm - 206 W/m² -
1787876545 35° C 27% 1093.5 hPa 0 mm - 211 W/m² -
1787876244 35° C 28% 1093.6 hPa 0 mm - 199 W/m² -
1787875938 35.56° C 26% 1093.5 hPa 0 mm - 152 W/m² -
1787875633 35.56° C 27% 1093.3 hPa 0 mm - 171 W/m² -
1787875332 35.56° C 27% 1093.5 hPa 0 mm - 190 W/m² -
1787875030 35.56° C 29% 1093.6 hPa 0 mm - 230 W/m² -
1787874727 35.56° C 29% 1093.4 hPa 0 mm - 252 W/m² -
1787874424 35.56° C 31% 1093.5 hPa 0 mm - 199 W/m² -
1787874119 35.56° C 31% 1093.5 hPa 0 mm - 280 W/m² -
1787873814 35.56° C 31% 1093.5 hPa 0 mm - 241 W/m² -
1787873514 35.56° C 31% 1093.7 hPa 0 mm - 207 W/m² -
1787873209 35.56° C 31% 1093.6 hPa 0 mm - 154 W/m² -
1787872908 35.56° C 32% 1093.4 hPa 0 mm - 152 W/m² -
1787872603 35.56° C 31% 1093.7 hPa 0 mm - 161 W/m² -
1787872298 36.11° C 31% 1093.7 hPa 0 mm - 175 W/m² -
1787871998 36.11° C 31% 1093.6 hPa 0 mm - 189 W/m² -

* Rain latest hour (hover to see other rain measurements)
** Current wind speed in m/s (hover to see current wind gust speed)